Bohynivka

Ukraine / Dnipropetrovsk Region     48˚29′17″N   36˚21′16″E
temp.,
°C
wind,
m/s
gust,
m/s
humid.,
%
clouds,
%
prec.,
mm/h
press.,
hPa
HPBL,
m
1 december, tue
tue123:00+4˚e41081100 0.0 1024596
02:00+4˚ese61072100 0.0 1025695
05:00+1˚e51076100 0.0 1025609
08:00+2˚e6975100 0.0 1025758
11:00+3˚ese6969100 0.0 1026818
14:00+3˚ese71068100 0.0 1025931
17:00+2˚ese71072100 0.0 10261052
20:00+2˚e61075100 0.0 1026779
2 december, wed
wed223:00+1˚e71190100 0.1 1027658
02:00+1˚e61183100 0.1 1027643
05:00+1˚e61087100 0.1 1027566
08:00+1˚e61082100 0.1 1028609
11:00+3˚ese697699 0.0 1027647
14:00+3˚ese597399 0.0 1027725
17:00+3˚ese61076100 0.0 1027665
20:00+2˚ese61080100 0.0 1027626
3 december, thu
thu323:00+2˚ese6985100 0.3 1027536
02:00+2˚ese5985100 0.6 1027507
05:00+3˚se5985100 0.1 1026456
08:00+3˚se5986100 0.1 1027482
11:00+4˚se5882100 0.0 1026460
14:00+4˚se5779100 0.0 1026455
17:00+3˚se4783100 0.0 1026416
20:00+3˚se4783100 0.0 1027507
4 december, fri
fri423:00+3˚ese4782100 0.0 1027478
02:00+3˚ese4784100 0.0 1026443
05:00+3˚ese4884100 0.0 1026477
08:00+3˚ese5882100 0.0 1026529
11:00+4˚ese5876100 0.0 1026592
14:00+5˚ese577296 0.0 1025644
17:00+4˚ese6107699 0.0 1026617
20:00+3˚ese61075100 0.0 1026624
5 december, sat
sat523:00+2˚ese5108271 0.0 1027516
02:00+2˚ese697979 0.0 1027540
05:00e5108030 0.0 1027425
08:00−1˚e6117915 0.0 1028446
11:00+3˚ese69660 0.0 1028540
14:00+4˚ese610640 0.0 1028595
17:00+2˚e511771 0.0 1029493
20:00e511760 0.0 1030468